Date,TemperatureHighF,TemperatureAvgF,TemperatureLowF,DewpointHighF,DewpointAvgF,DewpointLowF,HumidityHigh,HumidityAvg,HumidityLow,PressureMaxIn,PressureMinIn,WindSpeedMaxMPH,WindSpeedAvgMPH,GustSpeedMaxMPH,PrecipitationSumIn
2012-12-1,55.9,49.9,47.7,43.2,42.5,40.4,83,76,56,30.34,30.30,6,1,7,0.00
2012-12-2,62.2,53.9,47.1,48.5,45.3,42.7,93,74,52,30.35,30.23,17,6,17,0.00
2012-12-3,66.7,57.6,51.8,50.0,46.9,44.2,77,68,54,30.29,30.19,12,2,14,0.00
2012-12-4,64.4,56.6,51.6,47.4,46.6,45.5,82,70,53,30.28,30.15,12,4,18,0.00
2012-12-5,56.7,53.4,45.4,50.7,45.1,32.5,87,74,50,30.16,30.08,9,3,17,0.00
2012-12-6,47.1,41.0,35.0,38.3,35.8,25.2,91,82,54,30.25,30.14,10,2,14,0.09
2012-12-7,57.0,51.8,37.1,51.3,48.4,32.7,96,88,77,30.21,30.00,10,3,10,0.04
2012-12-8,64.5,52.6,45.8,49.7,47.1,45.0,97,83,54,30.02,29.95,11,4,15,0.00
2012-12-9,61.1,53.4,52.2,53.7,50.9,48.7,96,91,71,30.06,29.94,19,6,19,0.02
2012-12-10,55.9,52.9,49.9,53.5,51.0,48.0,96,93,88,29.94,29.66,13,5,19,0.24
2012-12-11,48.6,37.3,32.1,45.8,33.7,29.8,91,87,78,30.15,29.69,14,4,17,0.00
2012-12-12,36.2,35.0,32.9,32.5,30.6,28.1,87,84,77,30.33,30.15,12,4,14,0.00
2012-12-13,44.5,36.3,28.6,28.8,22.7,14.4,84,60,35,30.42,30.29,13,3,24,0.00
2012-12-14,57.4,44.2,34.9,31.3,25.9,20.7,67,49,32,30.39,30.23,7,2,18,0.00
2012-12-15,54.0,46.7,39.9,39.5,29.7,18.3,75,52,32,30.23,30.06,8,2,11,0.00
2012-12-16,51.0,47.5,43.1,49.9,45.0,39.5,97,91,76,30.06,29.89,8,2,13,0.62
2012-12-17,50.3,47.2,44.1,48.6,45.6,42.1,97,94,88,29.89,29.64,13,3,22,0.12
2012-12-18,45.9,42.7,39.4,41.9,37.2,20.4,94,82,40,29.94,29.65,27,8,28,0.09
2012-12-19,58.5,49.6,42.6,38.4,32.9,18.8,70,54,35,30.09,29.93,17,4,39,0.00
2012-12-20,49.3,39.2,32.0,42.9,35.1,24.6,97,85,63,30.09,29.54,30,10,30,0.82
2012-12-21,31.9,28.9,24.2,25.2,23.0,19.7,85,78,74,29.75,29.58,41,21,41,0.00
2012-12-26,37.1,32.5,26.2,36.6,31.1,24.1,100,96,87,29.71,29.50,15,5,30,0.08
2012-12-27,34.1,28.3,24.7,28.4,24.4,22.0,93,86,61,30.12,29.71,19,4,32,0.00
2012-12-28,42.5,32.1,28.1,32.2,25.0,21.2,93,75,62,30.18,30.00,7,1,8,0.02
2012-12-29,37.6,32.4,23.6,34.0,29.8,16.0,97,90,70,30.05,29.76,32,5,32,0.16
2012-12-30,39.1,31.6,21.9,21.7,15.3,-8.8,84,52,15,30.45,30.04,20,3,34,0.00
2012-12-31,49.7,40.0,31.5,25.2,15.8,-4.2,56,38,18,30.42,30.14,9,1,12,0.00